Find Starlink 31395

NORAD ID: 59180 Int'l Des: 2024-045 Owner: SPXS Country: US Constellation: starlink operational
LEOCIRCULAR

当前视图

正在加载3D地球...

About Starlink 31395

Starlink 31395 (NORAD 59180) is a starlink constellation satellite (v2 mini) launched Mar 11, 2024 by SPXS of US. It operates in LEO, CIRCULAR orbit with a mass of 730.00 kg.

关于 Starlink 31395

正在加载描述...

即将过境

Passes for default location (London). Set your location on the main map for personalized predictions.

高度历史

Loading altitude history...

两行轨道根数

1 59180U 24045C 26173.48567776 -.00000057 00000-0 74500-5 0 9991
2 59180 43.0013 221.1376 0001341 276.7631 83.3068 15.27572872129184
Epoch: Jun 22, 2026 • Age: 24 hours

当前状态

高度 483.0 km
速度 7.63 km/s
星下点 19.07°N, 75.69°W
发射日期 Mar 11, 2024
运行时间 2.2 years
类型 internet

技术详情

分类 Payload
质量 730.00 kg
干质量 700.00 kg
总质量 730.00 kg
长度 0.30 m
直径 4.10 m
跨度 29.00 m
形状 Box + pan
制造商 SPXS
平台类型 Starlink V2M
阶段状态 In Orbit
所有者/国家 SPXS/US

Most Searched